Location: Hemaruka
(51.7801°N, 111.0917°W)
Time: 12:44:48
(UTC+00:00)

RS-44 - Visible Passes

Search period start: 01 December 2023 00:00
Search period end: 11 December 2023 00:00
Orbit: 1174 x 1510 km, 82.5° (Epoch: 30 November)

Date Brightness Start Highest point End Pass type
(mag) Time Alt. Az. Time Alt. Az. Time Alt. Az.
01 Dec ? 03:54:30 10° N 03:54:57 11° N 03:54:57 11° N visible
01 Dec ? 05:47:26 10° N 05:47:32 10° N 05:47:32 10° N visible
02 Dec ? 04:18:00 10° N 04:18:31 12° N 04:18:31 12° N visible
03 Dec ? 04:41:37 10° N 04:42:06 12° N 04:42:06 12° N visible
04 Dec ? 03:12:49 10° N 03:13:06 11° N 03:13:06 11° N visible
04 Dec ? 05:05:20 10° N 05:05:41 12° N 05:05:41 12° N visible
05 Dec ? 03:36:08 10° N 03:36:42 12° N 03:36:42 12° N visible
05 Dec ? 05:29:09 10° NNW 05:29:17 11° NNW 05:29:17 11° NNW visible
06 Dec ? 03:59:39 10° N 04:00:17 12° N 04:00:17 12° N visible
07 Dec ? 04:23:17 10° N 04:23:54 13° N 04:23:54 13° N visible
08 Dec ? 02:54:22 10° N 02:54:56 12° NNE 02:54:56 12° NNE visible
08 Dec ? 04:47:01 10° N 04:47:31 12° N 04:47:31 12° N visible
09 Dec ? 03:17:44 10° N 03:18:33 13° N 03:18:33 13° N visible
09 Dec ? 05:10:51 10° NNW 05:11:08 11° NNW 05:11:08 11° NNW visible
10 Dec ? 03:41:16 10° N 03:42:11 14° N 03:42:11 14° N visible
